This is the latest recevied weather packets stored in our database for station/object SQ9SMC-13. If no packets are shown the sender has not sent any weather packets the latest 10 day(s).
| Time | Temp. | Humidity | Pressure | Rain* | Wind** | Luminosity | Snow |
|---|---|---|---|---|---|---|---|
| 1788156603 | 69° F | 82% | 762.5 mmHg | 0 in | - | 124 W/m² | - |
| 1788156302 | 68° F | 82% | 762.6 mmHg | 0 in | - | 101 W/m² | - |
| 1788156004 | 67° F | 83% | 762.7 mmHg | 0 in | - | 84 W/m² | - |
| 1788155703 | 65° F | 85% | 762.6 mmHg | 0 in | - | 76 W/m² | - |
| 1788155403 | 64° F | 88% | 762.8 mmHg | 0 in | - | 70 W/m² | - |
| 1788155103 | 63° F | 88% | 762.7 mmHg | 0 in | - | 66 W/m² | - |
| 1788154803 | 62° F | 95% | 762.6 mmHg | 0 in | - | 63 W/m² | - |
| 1788154503 | 60° F | 94% | 762.5 mmHg | 0 in | - | 59 W/m² | - |
| 1788154204 | 59° F | 97% | 762.7 mmHg | 0 in | - | 57 W/m² | - |
| 1788153904 | 58° F | 99% | 762.7 mmHg | 0 in | - | 53 W/m² | - |
| 1788153604 | 57° F | 99% | 762.7 mmHg | 0 in | - | 49 W/m² | - |
| 1788153303 | 55° F | 99% | 762.8 mmHg | 0 in | - | 29 W/m² | - |
| 1788153004 | 55° F | 99% | 762.8 mmHg | 0 in | - | 43 W/m² | - |
| 1788152703 | 55° F | 99% | 762.7 mmHg | 0 in | - | 36 W/m² | - |
| 1788152403 | 57° F | 99% | 762.7 mmHg | 0 in | - | 24 W/m² | - |
| 1788152103 | 56° F | 99% | 762.7 mmHg | 0 in | - | 33 W/m² | - |
| 1788151803 | 54° F | 99% | 762.7 mmHg | 0 in | - | 30 W/m² | - |
| 1788151502 | 53° F | 99% | 762.8 mmHg | 0 in | - | 27 W/m² | - |
| 1788151203 | 53° F | 99% | 762.7 mmHg | 0 in | - | 23 W/m² | - |
| 1788150903 | 53° F | 99% | 762.7 mmHg | 0 in | - | 22 W/m² | - |
| 1788150602 | 52° F | 99% | 762.8 mmHg | 0 in | - | 17 W/m² | - |
| 1788150303 | 51° F | 99% | 762.7 mmHg | 0 in | - | 13 W/m² | - |
| 1788150003 | 51° F | 99% | 762.8 mmHg | 0 in | - | 11 W/m² | - |
| 1788149703 | 51° F | 99% | 762.7 mmHg | 0 in | - | 8 W/m² | - |
| 1788149402 | 51° F | 99% | 762.9 mmHg | 0 in | - | 6 W/m² | - |
* Rain latest hour (hover to see other rain measurements)
** Current wind speed in m/s (hover to see current wind gust speed)